This is the latest recevied weather packets stored in our database for station/object W9PEM-13. If no packets are shown the sender has not sent any weather packets the latest 10 day(s).
| Time | Temp. | Humidity | Pressure | Rain* | Wind** | Luminosity | Snow |
|---|---|---|---|---|---|---|---|
| 1777339862 | 11.67° C | 99% | 970.8 hPa | 0 mm | - | 0 W/m² | - |
| 1777339263 | 11.67° C | 99% | 970.6 hPa | 0 mm | - | 0 W/m² | - |
| 1777338662 | 11.67° C | 99% | 970.7 hPa | 0 mm | - | 0 W/m² | - |
| 1777338062 | 11.67° C | 99% | 970.8 hPa | 0 mm | - | 0 W/m² | - |
| 1777337462 | 11.67° C | 99% | 970.4 hPa | 0 mm | - | 1 W/m² | - |
| 1777336862 | 11.67° C | 100% | 970.7 hPa | 0 mm | - | 4 W/m² | - |
| 1777336262 | 11.67° C | 99% | 970.3 hPa | 0 mm | - | 9 W/m² | - |
| 1777335662 | 12.22° C | 99% | 970.4 hPa | 0 mm | - | 26 W/m² | - |
| 1777330262 | 12.22° C | 98% | 972 hPa | 0 mm | - | 96 W/m² | - |
| 1777329663 | 11.67° C | 99% | 972.1 hPa | 0 mm | - | 146 W/m² | - |
| 1777329062 | 11.67° C | 100% | 972.2 hPa | 0 mm | - | 94 W/m² | - |
| 1777328462 | 11.11° C | 99% | 972.1 hPa | 0 mm | - | 65 W/m² | - |
| 1777327862 | 11.11° C | 99% | 972.1 hPa | 0 mm | - | 80 W/m² | - |
| 1777327262 | 10.56° C | 99% | 972.5 hPa | 0 mm | - | 87 W/m² | - |
| 1777326662 | 10° C | 99% | 972.6 hPa | 0 mm | - | 105 W/m² | - |
| 1777326062 | 10° C | 99% | 972.7 hPa | 0 mm | - | 49 W/m² | - |
| 1777325462 | 10° C | 99% | 972.7 hPa | 0 mm | - | 60 W/m² | - |
| 1777324862 | 9.44° C | 99% | 972.5 hPa | 0 mm | - | 66 W/m² | - |
| 1777324262 | 9.44° C | 99% | 972.4 hPa | 0 mm | - | 59 W/m² | - |
| 1777323662 | 8.89° C | 99% | 972.2 hPa | 0 mm | - | 83 W/m² | - |
| 1777323061 | 8.89° C | 99% | 972.4 hPa | 0 mm | - | 63 W/m² | - |
| 1777322462 | 9.44° C | 99% | 972.6 hPa | 0 mm | - | 62 W/m² | - |
| 1777321862 | 9.44° C | 99% | 972.7 hPa | 0 mm | - | 75 W/m² | - |
| 1777321262 | 9.44° C | 99% | 972.9 hPa | 0 mm | - | 105 W/m² | - |
| 1777320661 | 9.44° C | 99% | 973.1 hPa | 0 mm | - | 69 W/m² | - |
* Rain latest hour (hover to see other rain measurements)
** Current wind speed in m/s (hover to see current wind gust speed)